This demonstration page uses our WeatherBlox Daily Observations layout. Learn more.

Left ArrowRight Arrow

Hourly Observations for January 12, 2020

Temp ( °F °C ) Dew Point ( °F °C ) Humidity (%) Winds ( mph kmh ) Pressure ( in mb ) Visibility ( mi km ) Precip ( " mm )
12:02 am 00:02 Cloudy with Light Rain 46 7.8 44 6.7 93 93 WSW 21 33 29.88 1012 4 6 0.01 0.25
12:14 am 00:14 Cloudy 45 7.2 41 5 86 86 WSW 20 31 29.90 1012 10 16 0.01 0.25
12:22 am 00:22 Cloudy 44 6.7 40 4.4 85 85 WSW 21 33 29.91 1013 10 16 0.01 0.25
12:30 am 00:30 Cloudy 44 6.7 40 4.4 85 85 W 17 28 29.92 1013 10 16 0.01 0.25
12:53 am 00:53 Cloudy 43 6.1 39 3.9 86 86 WSW 17 28 29.93 1013 10 16 0.01 0.25
1:53 am 01:53 Cloudy 42 5.6 37 2.8 82 82 WSW 17 28 30.00 1016 10 16 0.00 0.00
2:53 am 02:53 Cloudy 41 5 36 2.2 82 82 W 12 19 30.08 1019 10 16 0.00 0.00
3:53 am 03:53 Mostly Cloudy 40 4.4 33 0.6 77 77 W 14 22 30.13 1020 10 16 0.00 0.00
4:05 am 04:05 Cloudy 39 3.9 33 0.6 79 79 W 10 17 30.15 1021 10 16 0.00 0.00
4:31 am 04:31 Cloudy 39 3.9 34 1.1 82 82 W 9 15 30.17 1022 10 16 0.00 0.00
4:53 am 04:53 Cloudy 39 3.9 33 0.6 79 79 W 10 17 30.17 1022 10 16 0.00 0.00
5:53 am 05:53 Cloudy 39 3.9 32 0 76 76 W 9 15 30.22 1023 10 16 0.00 0.00
6:53 am 06:53 Cloudy 39 3.9 33 0.6 79 79 W 9 15 30.26 1025 10 16 0.00 0.00
7:53 am 07:53 Cloudy 38 3.3 32 0 79 79 W 6 9 30.28 1025 10 16 0.00 0.00
8:53 am 08:53 Cloudy 38 3.3 31 -0.6 76 76 W 5 7 30.31 1026 10 16 0.00 0.00
9:53 am 09:53 Cloudy 39 3.9 32 0 76 76 W 5 7 30.35 1028 10 16 0.00 0.00
10:21 am 10:21 Cloudy 39 3.9 32 0 76 76 W 7 11 30.38 1029 10 16 0.00 0.00
10:53 am 10:53 Cloudy 39 3.9 32 0 76 76 NW 7 11 30.38 1029 10 16 0.00 0.00
11:53 am 11:53 Cloudy 39 3.9 33 0.6 79 79 WNW 6 9 30.38 1029 10 16 0.00 0.00
12:14 pm 12:14 Cloudy 39 3.9 33 0.6 79 79 W 5 7 30.38 1029 10 16 0.00 0.00
12:53 pm 12:53 Cloudy 39 3.9 33 0.6 79 79 Calm 30.35 1028 10 16 0.00 0.00
1:53 pm 13:53 Cloudy 40 4.4 32 0 73 73 Calm 30.32 1027 10 16 0.00 0.00
2:53 pm 14:53 Cloudy 41 5 33 0.6 73 73 SSE 3 6 30.30 1026 10 16 0.00 0.00
3:53 pm 15:53 Cloudy 41 5 33 0.6 73 73 VRB 3 6 30.31 1026 10 16 0.00 0.00
4:53 pm 16:53 Cloudy 41 5 34 1.1 76 76 S 5 7 30.31 1026 10 16 0.00 0.00
5:53 pm 17:53 Cloudy 41 5 35 1.7 79 79 Calm 30.31 1026 10 16 0.00 0.00
6:53 pm 18:53 Cloudy 41 5 36 2.2 82 82 Calm 30.31 1026 10 16 0.00 0.00
7:53 pm 19:53 Cloudy 41 5 36 2.2 82 82 E 3 6 30.29 1026 10 16 0.00 0.00
8:53 pm 20:53 Cloudy 41 5 36 2.2 82 82 Calm 30.29 1026 10 16 0.00 0.00
9:53 pm 21:53 Cloudy 41 5 37 2.8 86 86 Calm 30.28 1025 10 16 0.00 0.00
10:53 pm 22:53 Cloudy 41 5 37 2.8 86 86 Calm 30.28 1026 10 16 0.00 0.00
11:53 pm 23:53 Cloudy 41 5 37 2.8 86 86 Calm 30.28 1025 10 16 0.00 0.00

Powered by AerisWeather